Preview of NWS' New Version of Forecast
This preview is not operational and should not be used for support decisions.

Regional Weather Roundup (RWR)

Issued by National Weather Service (NWS)

                            
000
ASUS43 KLSX 232057
RWRMO 

WEATHER SUMMARY FOR MISSOURI
NATIONAL WEATHER SERVICE SPRINGFIELD MO
400 PM CDT TUE APR 23 2019

NOTE: "FAIR" INDICATES FEW OR NO CLOUDS BELOW 12,000 FEET WITH NO
       SIGNIFICANT WEATHER AND/OR OBSTRUCTIONS TO VISIBILITY.
       CURRENT SKY AND/OR WEATHER CONDITIONS ARE NOT AVAILABLE FOR
       CHILLICOTHE AND FARMINGTON.

MOZ001>031-035>038-043-044-053-054-232200-
...NORTHERN AND WESTERN MISSOURI...
  
CITY           SKY/WX    TMP DP  RH WIND       PRES   REMARKS
KANSAS CTY INT CLOUDY    55  46  71 NE6       30.05F                  
LEE'S SUMMIT   CLOUDY    55  46  71 NE6       30.05F                  
ST JOSEPH      CLOUDY    56  48  74 E5        30.07F                  
CHILLICOTHE      N/A     57  47  69 VRB5      30.08F                  
     
$$
MOZ066>068-077>081-088>096-101>105-232200-
...SOUTHWEST MISSOURI...
  
CITY           SKY/WX    TMP DP  RH WIND       PRES   REMARKS
SPRINGFIELD    PTSUNNY   66  56  70 N12       29.98F                  
JOPLIN         PTSUNNY   63  57  81 NE8       29.98F                  
BRANSON        PTSUNNY   75  59  57 CALM      29.96F                  
               
$$
MOZ032>034-039>042-045>050-055>058-069>072-232200-
...CENTRAL MISSOURI...  
  
CITY           SKY/WX    TMP DP  RH WIND       PRES   REMARKS
COLUMBIA       NOT AVBL                                               
JEFFERSON CITY RAIN      58  53  84 N9        30.05S                  
ROLLA          CLOUDY    65  54  67 NW8       30.03F                  
SEDALIA        CLOUDY    55  51  86 N10       30.02F                  
WARRENSBURG    CLOUDY    55  48  76 NE3       30.05F                  
OSAGE BEACH    LGT RAIN  57  55  94 NE6       30.05F                  
               
$$
MOZ051-052-059>065-232200-
...EAST CENTRAL MISSOURI...
  
CITY           SKY/WX    TMP DP  RH WIND       PRES   REMARKS
ST LOUIS INTL  CLOUDY    64  52  64 NW5       30.03F                  
                   
$$
MOZ072>076-082>087-097>100-106>115-232200-
...SOUTH CENTRAL AND SOUTHEAST MISSOURI...
  
CITY           SKY/WX    TMP DP  RH WIND       PRES   REMARKS
CAPE GIRARDEAU FAIR      79  60  52 S16G23    29.95F                  
POPLAR BLUFF   FAIR      77  60  55 SW13G20   29.97F                  
WEST PLAINS    CLOUDY    77  54  44 S8        29.99F                  
                                       
$$